Regional Weather Roundup
Issued by NWS

Home | Current Version | Previous Version | Text Only | Print | Product List | Glossary Off
Versions: 1 2 3 4 5 6 7 8 9 10 11 12 13 14 15 16 17 18 19 20 21 22 23 24 25 26 27 28 29 30 31 32 33 34 35 36 37 38 39 40 41 42 43 44 45 46 47 48 49 50

000
ASUS45 KBOI 202110
RWRID

IDAHO REGIONAL WEATHER ROUNDUP
NATIONAL WEATHER SERVICE BOISE ID
300 PM MDT SUN AUG 20 2017

NOTE: "FAIR" INDICATES FEW OR NO CLOUDS BELOW 12000 FEET
WITH NO SIGNIFICANT WEATHER AND/OR OBSTRUCTIONS TO VISIBILITY

IDZ012-014-202200-
SOUTHWEST IDAHO


CITY           SKY/WX    TMP DP  RH WIND       PRES   REMARKS
BOISE          SUNNY     84  39  20 W13       30.02F
CALDWELL       SUNNY     83  45  26 W9        30.01F
MOUNTAIN HOME  SUNNY     86  40  19 NW12G17   30.00F
$$

IDZ016-017-202200-
SOUTHCENTRAL IDAHO


CITY           SKY/WX    TMP DP  RH WIND       PRES   REMARKS
BURLEY         SUNNY     80  42  25 W8        30.05F
JEROME         SUNNY     82  43  25 W9        30.07F
TWIN FALLS     SUNNY     81  40  23 W10       30.08F
$$

IDZ019>023-202200-
SOUTHEAST IDAHO


CITY           SKY/WX    TMP DP  RH WIND       PRES   REMARKS
IDAHO FALLS    SUNNY     80  36  20 SW10G20   30.08F
POCATELLO      SUNNY     86  34  15 W15       30.07F
REXBURG        SUNNY     79  33  19 VRB7      30.08F
$$

IDZ006-010-011-018-031-032-202200-
CENTRAL IDAHO MOUNTAINS


CITY           SKY/WX    TMP DP  RH WIND       PRES   REMARKS
MCCALL         MOSUNNY   76  22  13 N12       30.12F
HAILEY         SUNNY     79  45  29 SE14      30.11F
STANLEY          N/A     79  22  12 VRB6G18   30.17S
SALMON         CLOUDY    77  38  24 VRB3      30.05F
CHALLIS        SUNNY     81  29  15 CALM      30.06F
$$

IDZ002-004-006-007-026-202200-
NORTHERN IDAHO


CITY           SKY/WX    TMP DP  RH WIND       PRES   REMARKS
LEWISTON       PTSUNNY   84  39  20 VRB5      30.03F
LOWELL           N/A     83  38  20 CALM      30.00F
COEUR D`ALENE  PTSUNNY   80  40  23 SW14      30.06F
MULLAN PASS    PTSUNNY   64  37  36 VRB3      30.21S
$$



USA.gov is the U.S. government's official web portal to all federal, state and local government web resources and services.